Clinton-Sherman, OK

1:01 PM CDT on May 21, 2018 (GMT -0500)
Clinton-Sherman

Weather History for KCSM - April, 2014

Change the Weather History Date:

Friday, April 18, 2014

  Actual Average Record
Temperature  
Mean Temperature 54 °F -  
Max Temperature 68 °F 70 °F 90 °F (2011)
Min Temperature 41 °F 46 °F 32 °F (2013)
Degree Days  
Heating Degree Days 12    
Growing Degree Days 4 (Base 50)    
Moisture  
Dew Point 43 °F    
Average Humidity 67    
Maximum Humidity 83    
Minimum Humidity 50    
Precipitation  
Precipitation 0.00 in - - ()
Sea Level Pressure  
Sea Level Pressure 30.21 in    
Wind  
Wind Speed 7 mph (SE)    
Max Wind Speed 18 mph    
Max Gust Speed 24 mph    
Visibility 10 miles    
Events      
Averages and records for this station are not official NWS values.
T = Trace of Precipitation, MM = Missing Value Source: NWS Daily Summary

Daily Weather History Graph

Daily Weather History Graph

Search for Another Location

Airport or City:

Astronomy

Apr. 18, 2014 Rise Set
Actual Time 7:00 AM CDT 8:12 PM CDT
Civil Twilight 6:34 AM CDT 8:38 PM CDT
Nautical Twilight 6:02 AM CDT 9:10 PM CDT
Astronomical Twilight 5:30 AM CDT 9:42 PM CDT
Moon 11:54 PM CDT (4/18) 9:28 AM CDT (4/18)
Length of Visible Light 14h 04m
Length of Day
13h 11m
Waning Gibbous, 87% of the Moon is Illuminated
Apr 18
Waning Gibbous
Apr 22
Last Quarter
Apr 29
New
May 6
First Quarter
May 14
Full

Hourly Weather History & Observations

Time (CDT) Temp. Windchill Dew Point Humidity Pressure Visibility Wind Dir Wind Speed Gust Speed Precip Events Conditions
12:53 AM 46.9 °F - 37.9 °F 71% 30.26 in 10.0 mi NNE 6.9 mph - N/A   Overcast
1:53 AM 46.9 °F - 37.9 °F 71% 30.26 in 10.0 mi NNE 5.8 mph - N/A   Overcast
2:53 AM 46.9 °F - 37.9 °F 71% 30.25 in 10.0 mi NE 4.6 mph - N/A   Overcast
3:53 AM 46.9 °F - 39.0 °F 74% 30.25 in 10.0 mi NE 3.5 mph - N/A   Overcast
4:32 AM 46.4 °F 45.2 °F 39.2 °F 76% 30.25 in 10.0 mi North 3.5 mph - N/A   Overcast
4:53 AM 46.9 °F - 39.0 °F 74% 30.25 in 10.0 mi Calm Calm - N/A   Overcast
5:07 AM 46.4 °F 45.2 °F 39.2 °F 76% 30.25 in 10.0 mi North 3.5 mph - N/A   Overcast
5:53 AM 45.0 °F 43.5 °F 37.9 °F 76% 30.26 in 9.0 mi North 3.5 mph - N/A   Overcast
6:53 AM 41.0 °F 39.0 °F 36.0 °F 82% 30.26 in 8.0 mi NE 3.5 mph - N/A   Clear
7:53 AM 45.0 °F 42.6 °F 37.9 °F 76% 30.27 in 7.0 mi NE 4.6 mph - N/A   Clear
8:53 AM 48.9 °F - 39.0 °F 69% 30.26 in 7.0 mi ENE 6.9 mph - N/A   Clear
9:53 AM 54.0 °F - 42.1 °F 64% 30.26 in 7.0 mi SE 5.8 mph - N/A   Clear
10:53 AM 57.9 °F - 44.1 °F 60% 30.25 in 9.0 mi South 8.1 mph - N/A   Clear
11:53 AM 62.1 °F - 46.0 °F 56% 30.24 in 10.0 mi SE 9.2 mph - N/A   Clear
12:53 PM 64.9 °F - 46.0 °F 50% 30.22 in 10.0 mi SSE 9.2 mph 20.7 mph N/A   Clear
1:53 PM 64.9 °F - 48.0 °F 54% 30.21 in 10.0 mi South 11.5 mph 21.9 mph N/A   Mostly Cloudy
2:53 PM 66.9 °F - 48.0 °F 51% 30.19 in 10.0 mi South 13.8 mph 24.2 mph N/A   Mostly Cloudy
3:53 PM 66.0 °F - 48.0 °F 52% 30.16 in 10.0 mi South 15.0 mph 23.0 mph N/A   Mostly Cloudy
4:53 PM 66.9 °F - 48.9 °F 52% 30.13 in 10.0 mi South 18.4 mph 23.0 mph N/A   Mostly Cloudy
5:53 PM 64.9 °F - 48.9 °F 56% 30.12 in 10.0 mi South 17.3 mph - N/A   Clear
6:53 PM 64.9 °F - 48.9 °F 56% 30.12 in 10.0 mi South 16.1 mph 21.9 mph N/A   Partly Cloudy
7:53 PM 62.1 °F - 48.9 °F 62% 30.11 in 10.0 mi South 12.7 mph - N/A   Clear
8:53 PM 55.0 °F - 48.0 °F 77% 30.11 in 10.0 mi South 8.1 mph - N/A   Clear
10:53 PM 54.0 °F - 48.0 °F 80% 30.12 in 10.0 mi South 6.9 mph - N/A   Clear
11:53 PM 52.0 °F - 46.9 °F 83% 30.12 in 10.0 mi South 9.2 mph - N/A   Clear